Temperature
23 22 21 22 26 26 25 28 32 33 33 33 33 31 29 28 27 25 26 24 23 23 23 22 21 21 21 20 20 20 20 20 19 19 19 19 19 19 19 19 19 19 19 19 19 19 19 19 19
22 22 23 26 27 25 24 27 31 33 34 33 32 31 29 27 27 26 25 24 22 22 22 22 21 21 21 20 20 20 20 20 19 19 19 19 19 19 19 19 19 19 19 19 19 19 19 19 19
22 23 26 29 29 26 26 29 32 34 34 33 32 30 28 27 26 25 24 23 22 21 22 22 21 21 20 20 20 20 20 19 19 19 19 19 19 19 19 19 19 19 19 19 19 19 19 19 19
22 25 28 30 30 31 30 32 33 34 33 32 31 28 26 26 26 25 24 23 22 21 22 22 21 21 20 20 20 20 20 19 19 19 19 19 19 19 19 19 19 19 19 19 19 19 19 19 19
24 28 30 30 31 31 31 33 34 33 32 31 29 27 25 26 25 25 24 23 22 21 21 22 21 21 20 20 20 20 20 19 19 19 19 19 19 19 19 19 19 19 19 19 19 19 19 19 19
27 30 30 31 31 31 31 31 32 31 30 30 28 26 24 25 25 25 24 24 23 21 21 22 21 21 20 20 20 20 20 19 19 19 19 19 19 19 19 19 19 19 19 18 18 19 19 19 19
28 30 30 32 32 31 32 32 32 31 29 29 28 26 24 25 25 25 25 24 23 22 21 21 21 20 20 20 20 20 20 19 19 19 19 19 19 19 19 19 19 19 19 19 18 19 19 19 19
29 30 30 32 33 32 33 32 31 30 29 29 29 27 23 24 25 25 24 24 23 22 21 20 20 20 20 20 20 20 20 19 19 19 19 19 19 19 19 19 19 19 19 19 19 18 18 19 19
29 29 30 32 33 32 32 31 31 30 29 28 28 26 24 24 24 24 24 24 23 22 21 21 20 20 19 19 19 19 19 19 19 19 19 19 19 18 18 18 18 18 18 18 18 18 18 19 19
30 29 31 33 33 32 31 30 30 30 28 26 24 24 24 23 24 24 24 24 23 22 22 21 20 20 19 19 19 19 19 19 19 19 18 18 18 18 18 18 18 18 18 18 18 18 18 18 18
31 31 32 33 32 32 31 30 29 29 25 23 22 23 23 24 24 24 24 23 22 22 22 21 20 20 20 19 19 19 19 19 19 18 18 18 18 18 18 18 18 18 18 18 18 18 18 18 18
31 32 32 32 31 31 31 29 28 25 23 22 23 23 24 25 25 24 24 23 22 22 21 21 20 20 20 19 19 19 19 19 19 18 18 18 18 18 18 18 18 18 17 17 18 18 18 18 18
31 31 31 30 30 30 29 28 25 23 23 24 24 24 25 25 24 24 23 22 22 21 21 20 20 19 19 19 19 19 19 19 18 18 18 18 18 18 18 18 18 17 17 17 17 17 17 17 17
31 31 30 29 29 28 28 27 25 22 23 24 24 24 24 24 24 23 22 22 21 21 20 20 19 19 19 19 19 19 18 18 18 18 18 18 17 17 17 17 17 17 17 17 17 17 17 17 17
30 29 28 27 28 27 26 24 23 22 23 24 24 24 24 23 23 22 21 21 21 20 20 20 19 19 19 19 18 18 18 18 17 17 17 17 17 17 17 17 17 17 17 16 16 16 16 16 17
29 28 26 26 26 27 26 21 20 21 23 24 24 23 23 22 22 21 21 20 20 20 19 19 19 19 19 18 18 18 18 18 17 17 17 17 17 17 17 16 16 16 16 16 16 16 16 16 16
28 26 25 25 26 27 25 20 20 21 22 23 24 23 22 22 21 21 20 20 20 19 19 19 19 18 18 18 18 18 18 18 17 17 17 17 16 16 16 16 16 16 16 16 16 16 16 16 16
28 27 26 26 27 27 25 21 20 21 22 23 23 23 22 22 21 21 20 20 19 19 19 19 19 18 18 18 18 18 18 17 17 17 17 16 16 16 16 15 15 15 15 15 15 15 15 15 15
30 28 27 26 27 27 26 23 22 22 22 23 22 22 22 21 21 20 20 19 19 19 19 19 18 18 18 18 18 17 17 17 17 17 16 16 16 15 15 15 15 15 15 15 15 15 14 15 15
30 28 27 27 28 28 26 23 23 23 23 22 22 22 22 21 21 20 20 20 19 19 19 19 18 18 18 18 18 18 17 17 17 16 16 15 15 15 15 14 14 14 14 14 14 14 14 14 14
29 28 28 28 28 27 26 24 22 23 23 23 22 22 22 22 21 20 20 20 19 19 19 19 18 18 18 18 17 17 17 17 17 16 16 15 15 14 14 14 14 13 13 13 14 14 14 13 14
29 29 29 28 26 25 25 23 22 23 24 24 23 23 23 22 22 21 21 20 20 19 19 19 18 18 18 17 17 17 16 16 16 16 16 15 15 14 14 13 13 13 13 13 13 13 13 13 13
30 30 28 27 25 24 25 24 23 22 23 24 24 24 24 23 22 22 21 21 20 20 20 19 18 18 18 17 17 16 16 16 16 15 15 15 14 14 14 13 13 13 13 12 13 13 13 13 13
31 29 26 23 22 22 24 25 23 24 24 25 25 25 24 24 23 23 22 21 21 20 20 19 19 18 18 17 16 16 16 15 15 15 15 14 14 14 14 14 13 13 12 12 12 12 12 12 12
30 27 24 21 20 22 25 26 25 26 26 26 26 25 25 24 24 23 23 22 21 21 20 20 19 18 17 17 16 16 15 15 15 14 14 14 14 14 14 13 13 13 12 12 12 12 12 12 12
30 29 26 25 24 25 26 26 27 28 28 27 27 26 25 25 24 24 23 22 22 21 21 20 19 18 17 16 16 15 15 14 14 14 14 14 13 13 13 13 12 12 12 11 11 11 11 11 12
30 29 30 28 27 25 26 27 27 28 28 28 27 26 26 25 25 24 23 23 22 21 21 20 19 18 17 16 16 15 15 14 14 14 13 13 13 13 13 12 12 12 12 11 11 11 11 11 11
31 31 30 28 27 26 25 25 25 27 27 28 28 27 27 26 25 25 24 23 22 21 20 19 18 17 17 16 15 15 15 14 13 13 13 12 12 12 12 12 12 12 11 11 11 11 11 11 11
30 30 29 29 28 26 23 24 27 27 28 28 28 27 27 27 26 25 24 23 22 21 20 19 18 17 16 16 15 15 14 13 13 13 13 12 12 12 12 12 12 11 11 11 11 11 11 11 11
30 30 29 28 27 28 27 26 29 29 30 29 29 28 27 27 26 25 24 22 21 21 20 19 18 17 16 16 15 14 14 13 13 13 13 12 12 12 12 12 11 11 11 11 11 11 11 11 11
Wind_Speed
12 13 11 9 7 6 9 10 5 9 10 11 12 15 19 17 11 12 14 22 25 22 20 19 17 16 14 13 13 13 13 13 13 13 13 12 12 12 11 10 10 10 11 10 10 10 10 10 9
12 14 11 7 8 3 3 9 5 7 8 9 13 18 20 16 15 15 17 22 24 21 19 18 18 16 15 14 14 14 13 13 13 13 12 12 11 11 10 9 9 9 9 9 9 9 9 9 8
14 16 9 8 12 6 6 7 1 5 7 9 13 16 13 11 13 14 18 22 22 19 20 19 18 16 15 14 14 14 14 14 13 13 12 11 11 10 9 8 8 8 8 8 8 8 8 7 7
8 10 8 11 16 7 3 3 1 3 6 7 14 12 11 10 13 17 20 22 22 20 20 19 18 17 15 14 14 14 13 13 13 12 11 10 9 9 8 8 7 7 7 7 7 7 6 6 5
11 9 13 16 16 6 7 7 2 4 5 7 15 15 11 13 18 19 19 21 20 20 20 19 18 16 15 14 13 13 12 12 11 11 10 9 8 7 7 6 6 6 6 6 6 5 5 5 4
9 11 15 16 10 3 7 6 3 7 6 8 15 17 9 12 17 18 18 18 20 21 19 18 17 16 14 13 12 12 11 10 10 9 9 8 7 7 6 6 5 5 5 5 5 5 4 4 3
12 13 18 20 13 7 6 4 2 6 4 5 12 15 11 12 15 16 16 17 20 21 18 16 16 14 13 12 11 11 10 9 8 8 7 7 6 6 6 6 5 5 5 4 4 4 4 4 4
11 12 19 20 16 7 1 2 1 6 4 3 7 12 14 12 12 15 15 16 18 19 17 15 16 15 13 12 11 11 10 9 8 8 7 6 6 7 7 7 7 6 5 5 5 5 5 6 6
12 12 16 16 11 4 3 3 3 5 4 5 10 19 22 17 13 15 14 15 14 15 14 15 15 13 13 14 14 13 11 10 9 9 9 8 7 8 9 9 9 8 7 6 6 6 7 8 10
9 12 15 11 9 6 5 4 5 1 5 12 16 20 22 18 15 15 14 14 13 12 12 11 12 9 8 10 13 11 11 11 9 8 9 7 4 3 4 7 9 9 7 7 7 7 8 9 9
9 13 14 12 9 7 7 6 5 2 6 12 11 10 16 17 15 14 13 13 12 10 9 12 10 7 5 5 7 4 5 8 6 6 5 3 1 1 0 3 5 5 6 5 4 6 7 7 7
8 11 11 10 10 10 9 5 4 8 12 13 11 9 12 14 14 13 13 14 12 9 9 10 10 6 5 5 3 3 3 3 3 5 3 3 1 2 2 1 1 1 2 2 1 3 5 6 6
9 9 9 8 9 8 9 4 6 9 15 17 14 11 12 13 13 12 12 13 11 9 9 10 9 8 6 5 3 3 3 3 4 4 4 2 1 1 1 1 1 3 2 2 2 3 3 4 6
10 9 10 10 10 8 5 1 7 5 9 13 13 10 11 12 13 13 11 11 10 9 9 10 8 8 5 4 2 2 2 2 3 4 4 2 2 2 1 1 1 3 3 2 3 4 3 4 4
8 8 10 11 10 6 3 3 4 2 6 10 11 11 11 12 13 12 11 10 10 10 9 8 8 7 5 3 1 1 1 3 3 3 3 4 4 3 2 2 2 1 3 4 4 4 4 5 5
9 6 6 10 11 9 5 1 3 5 4 7 10 9 10 10 11 11 10 10 11 10 8 5 7 7 5 4 1 1 2 3 2 3 5 6 5 4 3 2 1 2 4 3 2 3 3 3 3
8 5 5 8 12 9 2 5 4 11 6 8 10 10 11 10 10 11 10 10 10 9 8 7 7 6 5 4 2 2 3 2 1 4 6 5 4 4 4 2 2 4 3 2 4 2 2 3 4
8 4 3 5 7 6 3 9 9 10 7 7 8 10 11 11 10 10 11 11 10 9 8 7 7 6 4 3 2 2 2 1 2 4 5 4 3 5 5 3 3 4 3 3 3 4 3 3 4
9 3 3 3 6 4 4 10 10 9 5 7 7 7 10 11 11 10 10 10 10 9 8 7 6 5 3 2 1 1 1 0 1 3 5 3 3 4 4 3 3 3 3 3 5 4 5 5 4
9 7 5 5 6 3 4 6 4 5 5 7 9 8 10 12 11 9 9 9 10 9 8 6 6 6 3 3 1 0 1 1 0 2 3 3 2 2 4 3 4 4 4 4 4 3 3 5 5
6 7 7 5 2 1 1 2 2 5 6 7 9 10 11 13 13 12 10 9 10 10 9 8 7 6 3 3 1 1 0 2 1 1 1 2 1 2 3 3 3 4 5 4 4 3 4 4 5
6 6 8 7 3 2 3 2 3 5 7 9 11 12 12 12 13 13 12 11 10 10 10 8 7 6 4 2 1 2 2 2 1 1 1 1 2 3 3 3 3 3 4 6 6 4 4 5 5
7 6 7 9 6 4 5 2 4 8 8 10 11 11 12 13 13 12 13 11 11 11 10 9 8 6 5 3 2 2 3 3 3 3 3 2 3 4 4 3 1 2 4 5 5 6 5 5 6
7 5 7 11 6 4 6 3 4 7 10 12 13 13 13 14 13 13 12 11 10 9 9 9 9 7 5 4 3 2 2 3 4 5 4 3 3 3 2 1 1 2 3 5 5 5 6 5 6
7 6 3 1 2 6 7 1 6 9 12 12 14 15 14 14 13 12 11 11 10 9 9 8 9 8 6 5 3 1 1 3 5 5 4 3 4 3 3 3 2 3 4 5 5 6 6 6 7
8 7 5 6 3 2 2 4 9 11 11 11 11 13 14 13 12 12 11 10 9 9 8 8 9 7 6 5 3 1 1 3 3 4 4 5 4 4 3 3 3 4 5 6 5 5 7 6 6
7 7 8 8 6 3 1 7 11 11 11 11 12 13 14 14 14 14 13 11 10 8 7 7 8 6 4 3 3 3 3 3 3 3 4 4 4 5 6 6 6 5 5 6 6 6 7 7 7
8 9 7 6 6 3 3 2 6 11 12 12 12 12 13 14 14 13 12 10 9 8 8 7 7 5 3 3 4 3 2 2 3 4 4 4 5 5 6 6 7 7 6 6 6 6 7 7 7
8 8 5 6 7 5 2 2 8 11 11 12 13 13 12 13 13 12 11 10 10 9 9 8 7 6 5 5 4 1 2 3 3 4 5 5 4 5 6 7 7 7 7 7 6 7 8 8 8
10 8 6 5 6 6 3 2 6 6 9 10 11 12 12 11 11 12 12 11 10 9 9 9 8 7 6 6 4 4 3 4 4 5 5 4 5 5 6 6 7 8 8 7 7 8 8 8 8
Wind_Direction
204 226 231 246 249 247 303 304 13 65 68 64 61 73 71 62 79 101 117 111 113 117 122 119 115 115 118 123 129 131 132 129 127 124 121 119 116 113 110 106 102 96 92 89 85 83 83 83 82
222 229 235 247 246 244 303 291 329 69 83 86 76 79 78 71 85 106 110 114 116 122 127 120 116 114 114 117 122 128 130 129 127 126 124 122 121 120 116 113 108 103 99 96 93 91 90 88 87
242 243 253 253 252 227 201 239 259 92 98 95 85 72 76 90 100 110 120 121 118 118 115 118 117 114 113 113 114 119 124 126 126 126 125 125 125 124 122 119 115 111 108 102 101 98 98 95 92
240 238 243 256 268 280 266 295 314 86 96 100 102 83 78 85 108 119 127 120 118 121 120 121 119 116 115 114 114 116 122 125 127 128 129 130 130 130 129 127 123 117 114 110 109 106 105 105 101
242 258 252 262 270 299 303 298 308 73 87 93 96 96 87 94 113 125 127 124 130 124 122 125 123 120 120 120 119 119 122 126 130 133 136 137 139 139 140 139 133 128 124 124 122 120 121 123 123
252 255 262 268 272 250 281 301 332 74 82 95 106 109 109 120 123 132 130 134 128 124 123 126 126 126 126 127 128 128 130 134 137 141 144 148 151 153 154 153 151 145 142 144 147 146 150 157 162
260 276 279 281 273 239 243 283 52 97 117 124 124 118 126 134 130 131 131 128 124 122 126 136 136 133 133 135 137 138 140 142 145 148 154 161 170 175 178 178 176 170 165 167 172 175 180 187 199
263 282 280 278 275 263 198 294 151 113 109 100 130 125 135 134 135 128 128 126 123 126 134 140 143 144 149 149 150 152 154 157 162 165 171 184 196 201 203 199 192 188 186 185 190 199 207 211 217
259 264 270 281 302 318 22 336 325 103 126 76 71 116 131 140 139 134 132 124 120 125 134 145 142 151 162 162 159 166 171 176 181 183 190 202 215 210 206 213 192 190 199 202 205 210 217 222 225
248 261 274 302 329 328 344 300 277 154 99 79 76 106 127 140 145 142 136 130 125 126 135 129 133 143 161 156 154 176 177 175 195 186 185 202 224 229 209 178 179 186 199 211 217 230 233 234 235
261 271 292 307 309 307 297 280 281 135 87 88 99 122 136 141 143 142 139 135 128 131 127 123 120 131 134 116 151 148 150 154 183 161 161 180 250 279 177 157 179 191 211 221 212 229 246 249 253
266 284 289 297 310 304 289 297 30 78 111 116 142 165 150 142 140 140 137 133 133 137 125 118 116 114 79 66 69 93 100 121 88 98 91 69 33 355 358 39 62 238 242 233 199 223 251 265 273
271 276 290 300 299 290 294 2 71 97 124 138 154 168 146 127 124 118 116 121 128 128 116 100 100 96 88 76 30 57 61 78 88 92 83 55 30 354 330 333 312 280 271 240 229 240 251 254 255
307 319 325 323 319 307 289 33 90 106 129 139 146 139 120 112 113 111 118 118 124 121 109 105 103 100 94 95 70 31 42 81 74 81 86 70 34 12 345 287 264 267 261 247 239 242 238 241 241
310 316 323 323 301 283 293 23 59 165 156 142 129 118 112 110 111 119 124 124 119 109 102 110 119 113 114 117 130 102 81 87 83 89 89 69 53 20 335 293 277 292 277 250 234 244 241 240 239
317 307 307 300 288 269 244 111 310 280 199 125 123 124 115 103 107 111 115 113 112 113 111 113 116 114 115 110 103 98 90 90 95 116 97 72 47 18 333 321 9 346 299 273 252 245 260 274 279
290 280 269 267 263 265 228 138 195 249 215 155 146 140 127 127 121 121 122 117 116 119 119 110 106 118 120 125 135 115 94 93 107 88 82 68 40 22 355 349 17 325 310 307 312 15 347 317 312
287 246 227 247 266 267 140 142 192 225 221 165 150 142 134 133 127 123 121 124 124 123 121 120 118 120 133 136 139 130 125 146 111 97 91 68 31 33 1 322 26 346 323 326 347 337 312 290 277
318 338 331 302 276 280 135 144 179 199 202 157 146 140 139 136 130 129 131 129 128 127 126 128 128 133 148 135 142 146 130 98 121 131 115 96 42 22 331 333 350 316 321 352 336 331 317 297 275
330 321 304 274 261 296 108 120 162 176 176 158 147 150 145 137 136 141 144 142 140 140 137 141 149 155 165 125 87 111 22 298 228 76 125 121 74 349 321 19 332 341 343 307 286 294 298 300 306
314 306 299 284 284 5 80 135 174 187 165 163 162 160 157 155 155 158 158 154 152 153 160 166 160 153 157 128 198 293 39 294 325 63 140 104 25 316 338 332 324 334 312 317 343 308 296 300 306
300 296 301 307 305 273 206 205 201 216 193 185 180 170 164 163 161 164 165 167 167 168 173 160 155 153 155 168 251 287 278 292 312 326 47 57 311 280 277 285 304 326 322 319 312 359 342 315 303
310 325 334 345 341 300 248 207 184 193 211 199 185 178 169 170 170 173 173 174 178 178 173 164 159 160 166 187 230 279 308 333 355 8 353 325 278 259 244 232 250 314 300 310 327 323 315 309 302
302 318 3 15 355 304 253 228 161 179 199 190 184 183 176 175 174 173 174 173 181 181 175 168 160 160 167 196 226 239 303 334 327 318 303 293 291 282 277 249 113 293 299 315 315 307 295 287 294
288 298 340 22 259 246 237 218 140 166 178 180 178 178 178 179 175 172 177 177 181 184 181 168 154 162 180 196 209 226 288 296 271 266 292 315 312 323 35 26 8 315 306 296 286 286 283 283 284
265 274 282 292 275 219 213 138 137 143 150 160 168 172 176 177 173 176 176 179 186 185 175 158 152 165 180 189 176 181 254 278 307 7 350 326 316 329 356 331 301 289 288 290 295 294 283 276 273
286 292 296 300 308 324 241 118 121 136 145 156 166 173 180 181 180 181 181 184 181 170 158 154 146 156 172 181 155 200 223 258 311 326 290 292 330 318 338 337 316 298 287 282 283 277 281 284 279
268 298 307 311 316 332 42 96 159 166 164 168 175 180 181 183 184 182 176 173 155 147 140 139 138 148 166 201 211 224 195 234 257 273 300 310 301 296 300 297 297 295 289 281 275 275 274 276 273
247 261 288 309 319 333 354 320 163 171 170 175 180 182 185 188 184 173 158 148 142 145 144 144 151 163 182 208 203 241 260 271 277 270 270 276 282 292 290 286 287 288 286 281 274 273 272 274 274
301 273 267 276 301 305 312 103 115 156 170 171 177 178 183 183 174 160 150 143 150 158 160 162 167 177 187 195 188 203 226 246 262 273 279 285 282 280 282 285 288 288 288 288 284 283 284 280 279
Height
1509 1509 1509 1511 1507 1503 1504 1485 1465 1463 1464 1466 1468 1472 1480 1487 1494 1508 1510 1511 1512 1515 1520 1524 1527 1531 1534 1537 1539 1542 1544 1545 1547 1549 1550 1551 1552 1553 1554 1555 1556 1557 1558 1559 1560 1560 1561 1562 1562
1509 1509 1512 1508 1501 1512 1512 1486 1472 1464 1465 1467 1470 1475 1483 1493 1498 1505 1510 1513 1514 1517 1521 1525 1529 1532 1535 1538 1540 1543 1545 1547 1548 1550 1551 1552 1553 1555 1555 1556 1557 1558 1559 1560 1561 1561 1562 1563 1564
1508 1510 1509 1497 1490 1502 1501 1479 1467 1462 1464 1468 1473 1480 1488 1497 1502 1506 1511 1514 1516 1519 1523 1526 1530 1533 1536 1539 1542 1544 1546 1548 1549 1551 1552 1553 1554 1555 1556 1557 1558 1559 1560 1561 1562 1562 1563 1564 1565
1509 1509 1504 1493 1485 1476 1476 1470 1463 1462 1465 1469 1474 1486 1495 1499 1503 1507 1512 1515 1517 1521 1524 1528 1531 1534 1537 1540 1542 1545 1547 1548 1550 1551 1553 1554 1555 1556 1557 1558 1559 1560 1561 1562 1563 1563 1564 1565 1566
1510 1505 1496 1489 1479 1474 1471 1467 1464 1463 1468 1470 1475 1489 1498 1501 1505 1509 1514 1517 1519 1522 1525 1529 1532 1535 1538 1541 1543 1545 1547 1549 1551 1552 1553 1554 1556 1557 1558 1559 1560 1561 1561 1562 1563 1564 1565 1566 1567
1507 1497 1493 1487 1478 1474 1472 1469 1466 1467 1473 1475 1480 1489 1501 1504 1507 1511 1515 1518 1521 1523 1526 1530 1533 1536 1539 1541 1544 1546 1548 1549 1551 1552 1553 1555 1556 1557 1558 1559 1560 1561 1562 1563 1564 1564 1565 1566 1567
1505 1495 1490 1480 1474 1471 1470 1467 1467 1470 1476 1477 1481 1488 1500 1503 1508 1512 1516 1519 1522 1525 1527 1531 1534 1537 1540 1542 1545 1546 1548 1549 1551 1552 1553 1555 1556 1557 1558 1559 1560 1561 1562 1563 1563 1564 1565 1566 1567
1501 1496 1489 1478 1470 1468 1466 1469 1468 1470 1476 1478 1478 1485 1499 1504 1508 1512 1517 1520 1523 1526 1530 1532 1535 1538 1541 1543 1545 1547 1548 1550 1551 1552 1553 1555 1556 1557 1558 1558 1559 1560 1561 1562 1563 1564 1565 1566 1566
1499 1498 1492 1477 1469 1467 1467 1471 1472 1472 1477 1479 1479 1483 1493 1503 1509 1514 1517 1521 1525 1529 1532 1535 1537 1539 1541 1543 1545 1547 1548 1549 1551 1552 1553 1554 1555 1556 1557 1557 1558 1559 1560 1561 1562 1563 1564 1564 1565
1494 1494 1483 1473 1471 1471 1471 1475 1475 1475 1480 1484 1489 1493 1496 1503 1509 1514 1517 1522 1526 1530 1533 1536 1538 1540 1543 1545 1546 1547 1548 1549 1550 1551 1552 1553 1554 1556 1557 1557 1558 1558 1559 1560 1560 1561 1562 1563 1564
1488 1486 1479 1475 1474 1474 1475 1476 1477 1477 1487 1489 1494 1500 1501 1505 1510 1514 1518 1523 1527 1531 1534 1536 1538 1540 1544 1545 1547 1548 1549 1549 1550 1551 1552 1553 1554 1555 1555 1556 1556 1556 1557 1558 1558 1560 1561 1562 1562
1486 1483 1479 1478 1478 1478 1478 1479 1483 1483 1489 1494 1497 1504 1505 1506 1510 1514 1519 1523 1527 1531 1534 1536 1538 1540 1542 1544 1546 1548 1549 1549 1549 1550 1551 1551 1552 1553 1554 1554 1554 1555 1556 1557 1557 1558 1559 1559 1560
1483 1481 1480 1480 1479 1480 1480 1482 1488 1491 1490 1494 1499 1504 1504 1506 1511 1515 1519 1523 1527 1531 1534 1536 1537 1539 1541 1543 1545 1547 1547 1548 1548 1549 1549 1550 1551 1552 1552 1552 1552 1553 1553 1554 1554 1555 1555 1556 1557
1483 1481 1481 1481 1482 1481 1483 1485 1490 1498 1494 1497 1501 1502 1503 1507 1512 1516 1520 1524 1528 1531 1533 1535 1537 1538 1540 1542 1544 1546 1546 1547 1548 1548 1548 1549 1550 1550 1550 1551 1551 1551 1551 1551 1551 1552 1552 1553 1554
1484 1485 1486 1486 1484 1485 1488 1493 1496 1498 1498 1499 1501 1503 1506 1509 1513 1516 1520 1525 1528 1530 1533 1535 1537 1538 1540 1542 1543 1545 1546 1546 1546 1547 1547 1548 1548 1548 1548 1549 1549 1549 1549 1549 1549 1549 1550 1550 1551
1486 1491 1498 1494 1489 1487 1492 1509 1503 1499 1500 1500 1501 1505 1508 1512 1514 1518 1522 1525 1527 1530 1532 1535 1537 1538 1540 1541 1543 1545 1546 1546 1546 1547 1547 1547 1547 1547 1547 1547 1547 1547 1547 1547 1548 1547 1547 1548 1548
1491 1499 1503 1498 1487 1486 1490 1507 1503 1501 1501 1501 1502 1505 1508 1513 1517 1520 1522 1525 1527 1529 1531 1534 1536 1538 1540 1541 1543 1544 1545 1546 1547 1547 1546 1546 1546 1546 1546 1546 1545 1545 1545 1546 1546 1545 1545 1545 1545
1491 1493 1496 1495 1484 1485 1491 1502 1500 1500 1501 1500 1502 1505 1509 1513 1517 1520 1522 1525 1527 1529 1531 1534 1536 1538 1540 1541 1543 1544 1545 1546 1546 1546 1545 1545 1545 1544 1544 1544 1543 1543 1543 1543 1543 1543 1542 1542 1542
1476 1485 1491 1488 1480 1482 1488 1498 1499 1500 1500 1499 1501 1505 1509 1512 1516 1519 1522 1525 1527 1529 1532 1534 1536 1538 1540 1541 1542 1543 1544 1545 1545 1545 1544 1544 1543 1543 1542 1542 1541 1541 1541 1541 1541 1540 1540 1540 1540
1476 1483 1486 1484 1479 1481 1488 1497 1497 1497 1499 1500 1501 1505 1508 1512 1516 1520 1523 1526 1528 1530 1532 1534 1536 1538 1540 1541 1542 1543 1544 1544 1544 1544 1543 1542 1542 1541 1541 1540 1539 1539 1539 1539 1538 1538 1537 1537 1538
1479 1482 1482 1482 1478 1480 1490 1500 1501 1498 1499 1501 1502 1505 1509 1511 1515 1519 1522 1525 1528 1530 1532 1535 1536 1538 1539 1540 1541 1542 1542 1543 1543 1542 1542 1541 1540 1540 1539 1538 1537 1537 1537 1537 1536 1536 1535 1535 1535
1481 1474 1475 1478 1486 1496 1495 1512 1505 1499 1498 1500 1502 1503 1506 1510 1514 1518 1521 1524 1527 1529 1531 1534 1535 1536 1537 1538 1539 1540 1541 1541 1541 1540 1540 1539 1538 1538 1537 1536 1536 1535 1534 1534 1534 1534 1532 1532 1532
1473 1471 1477 1483 1491 1497 1494 1502 1505 1499 1500 1497 1498 1501 1504 1509 1513 1517 1520 1523 1526 1528 1530 1532 1533 1534 1536 1536 1537 1537 1538 1538 1538 1537 1537 1536 1536 1536 1535 1534 1533 1532 1532 1532 1531 1530 1530 1530 1530
1469 1474 1483 1496 1505 1516 1497 1498 1504 1494 1493 1492 1494 1499 1503 1507 1511 1515 1518 1522 1525 1527 1529 1530 1531 1532 1534 1534 1535 1535 1535 1535 1535 1535 1535 1534 1534 1534 1534 1532 1531 1530 1529 1529 1528 1527 1527 1527 1526
1470 1483 1507 1525 1530 1516 1487 1488 1492 1482 1482 1486 1490 1495 1500 1504 1509 1513 1517 1520 1523 1525 1527 1529 1529 1530 1532 1532 1533 1533 1533 1532 1532 1532 1533 1532 1532 1532 1531 1530 1529 1528 1527 1526 1525 1524 1524 1523 1523
1471 1476 1498 1509 1508 1498 1484 1488 1481 1474 1479 1483 1488 1493 1498 1502 1506 1511 1515 1518 1521 1523 1525 1527 1527 1528 1529 1530 1530 1530 1530 1530 1531 1530 1530 1530 1529 1529 1528 1527 1526 1525 1523 1523 1522 1521 1520 1520 1519
1470 1471 1466 1477 1483 1499 1491 1479 1478 1474 1478 1482 1487 1491 1495 1499 1504 1508 1512 1515 1518 1521 1523 1524 1525 1527 1528 1528 1528 1528 1528 1528 1527 1527 1527 1527 1526 1526 1525 1524 1523 1521 1520 1519 1518 1517 1517 1516 1515
1463 1463 1467 1478 1490 1499 1497 1492 1489 1480 1479 1480 1483 1488 1492 1496 1500 1504 1508 1512 1515 1518 1520 1522 1523 1524 1525 1526 1526 1527 1526 1525 1525 1524 1524 1524 1523 1522 1521 1520 1519 1518 1517 1516 1515 1513 1513 1512 1511
1466 1467 1468 1471 1475 1493 1513 1503 1472 1473 1474 1476 1480 1484 1489 1493 1497 1501 1505 1509 1513 1516 1518 1520 1521 1522 1523 1523 1523 1524 1523 1523 1523 1522 1522 1521 1520 1519 1518 1517 1516 1514 1513 1512 1511 1510 1509 1508 1507
1463 1464 1467 1481 1484 1479 1488 1491 1465 1466 1468 1472 1476 1480 1485 1489 1494 1498 1502 1506 1511 1514 1516 1518 1519 1520 1520 1521 1521 1521 1520 1520 1519 1519 1519 1518 1517 1515 1514 1513 1512 1511 1510 1509 1507 1506 1505 1504 1503